This demonstration page uses our WeatherBlox Daily Observations layout. Learn more.

Left ArrowRight Arrow

38.83388, -104.82136

Hourly Observations for August 1, 2022

Temp ( °F °C ) Dew Point ( °F °C ) Humidity (%) Winds ( mph kmh ) Pressure ( in mb ) Visibility ( mi km ) Precip ( " mm )
12:54 am 00:54 Mostly Clear 64 17.8 53 11.7 68 68 N 5 7 30.01 1016 10 16 0.00 0.00
1:54 am 01:54 Mostly Clear 62 16.7 53 11.7 73 73 ENE 6 9 30.03 1017 10 16 0.00 0.00
2:54 am 02:54 Mostly Clear 62 16.7 50 10 65 65 NNE 3 6 30.01 1016 10 16 0.00 0.00
3:54 am 03:54 Mostly Clear 62 16.7 50 10 65 65 N 6 9 29.99 1016 10 16 0.00 0.00
4:54 am 04:54 Mostly Clear 61 16.1 50 10 67 67 NE 7 11 30.01 1016 10 16 0.00 0.00
5:54 am 05:54 Mostly Clear 59 15 50 10 72 72 N 6 9 30.03 1017 10 16 0.00 0.00
6:54 am 06:54 Partly Cloudy 61 16.1 52 11.1 72 72 N 5 7 30.01 1016 10 16 0.00 0.00
7:54 am 07:54 Partly Cloudy 71 21.7 55 12.8 57 57 Calm 29.99 1016 10 16 0.00 0.00
8:54 am 08:54 Partly Cloudy 77 25 47 8.3 35 35 Calm 29.98 1015 10 16 0.00 0.00
9:54 am 09:54 Partly Cloudy 79 26.1 50 10 36 36 Calm 29.98 1015 10 16 0.00 0.00
10:54 am 10:54 Partly Cloudy 82 27.8 51 10.6 34 34 E 3 6 29.97 1015 10 16 0.00 0.00
11:54 am 11:54 Partly Cloudy 84 28.9 52 11.1 33 33 S 7 11 29.96 1015 10 16 0.00 0.00
12:54 pm 12:54 Partly Cloudy 88 31.1 52 11.1 29 29 SW 9 15 29.94 1014 10 16 0.00 0.00
1:54 pm 13:54 Mostly Cloudy 87 30.6 50 10 28 28 SE 8 13 29.93 1014 10 16 0.00 0.00
2:54 pm 14:54 Partly Cloudy 87 30.6 51 10.6 29 29 SE 9 15 29.92 1013 10 16 0.00 0.00
3:54 pm 15:54 Mostly Cloudy 88 31.1 48 8.9 25 25 ESE 6 9 29.90 1012 10 16 0.00 0.00
4:54 pm 16:54 Mostly Cloudy 87 30.6 48 8.9 26 26 SE 7 11 29.90 1012 10 16 0.00 0.00
5:54 pm 17:54 Mostly Cloudy 83 28.3 54 12.2 37 37 SSW 6 9 29.91 1013 10 16 0.00 0.00
6:54 pm 18:54 Mostly Cloudy 82 27.8 47 8.3 29 29 WNW 10 17 29.93 1013 10 16 0.00 0.00
7:12 pm 19:12 Mostly Cloudy with Light Rain 82 27.8 47 8.3 29 29 N 14 22 29.66 1004 10 16 0.00 0.00
7:54 pm 19:54 Cloudy with Light Rain 80 26.7 47 8.3 31 31 W 9 15 29.92 1013 10 16 0.00 0.00
8:54 pm 20:54 Cloudy 75 23.9 51 10.6 43 43 W 7 11 29.91 1013 10 16 0.00 0.00
9:54 pm 21:54 Mostly Cloudy 77 25 48 8.9 36 36 NW 13 20 29.92 1013 10 16 0.00 0.00
10:54 pm 22:54 Mostly Cloudy 71 21.7 51 10.6 49 49 NNW 9 15 29.91 1013 10 16 0.00 0.00
11:54 pm 23:54 Mostly Cloudy 71 21.7 52 11.1 51 51 N 9 15 29.88 1012 10 16 0.00 0.00

Powered by AerisWeather